Poplar Bluff, MO

10:04 AM CST on November 21, 2017 (GMT -0600)
Poplar Bluff Municipal

Weather History for KPOF - May, 2012

Change the Weather History Date:

Monday, May 14, 2012

  Actual Average Record
Temperature  
Mean Temperature 68 °F -  
Max Temperature 82 °F 78 °F 93 °F (1944)
Min Temperature 55 °F 54 °F 41 °F (1920)
Cooling Degree Days 4    
Growing Degree Days 18 (Base 50)    
Moisture  
Dew Point 51 °F    
Average Humidity 51    
Maximum Humidity 73    
Minimum Humidity 34    
Precipitation  
Precipitation 0.00 in - - ()
Sea Level Pressure  
Sea Level Pressure 30.02 in    
Wind  
Wind Speed 7 mph (NNW)    
Max Wind Speed 14 mph    
Max Gust Speed 22 mph    
Visibility 9 miles    
Events      
Averages and records for this station are not official NWS values.
T = Trace of Precipitation, MM = Missing Value Source: NWS Daily Summary

Daily Weather History Graph

Daily Weather History Graph

Search for Another Location

Airport or City:

Trip Planner

Search our weather history database for the weather conditions in past years. The results will help you decide how hot, cold, wet, or windy it might be!

Date:

Astronomy

May. 14, 2012 Rise Set
Actual Time 5:54 AM CDT 8:01 PM CDT
Civil Twilight 5:25 AM CDT 8:30 PM CDT
Nautical Twilight 4:50 AM CDT 9:05 PM CDT
Astronomical Twilight 4:12 AM CDT 9:44 PM CDT
Moon 2:19 AM CDT (5/14) 2:30 PM CDT (5/14)
Length of Visible Light 15h 05m
Length of Day
14h 07m
Waning Crescent, 32% of the Moon is Illuminated
May 14
Waning Crescent
May 20
New
May 28
First Quarter
Jun 4
Full
Jun 11
Last Quarter

Hourly Weather History & Observations

Time (CDT) Temp. Heat Index Dew Point Humidity Pressure Visibility Wind Dir Wind Speed Gust Speed Precip Events Conditions
12:53 AM 62.1 °F - 50.0 °F 65% 30.03 in 10.0 mi NW 3.5 mph - N/A   Clear
2:53 AM 60.1 °F - 48.9 °F 67% 30.03 in 10.0 mi NW 5.8 mph - N/A   Clear
3:53 AM 59.0 °F - 48.0 °F 67% 30.02 in 10.0 mi NNW 6.9 mph - N/A   Clear
4:53 AM 57.9 °F - 46.0 °F 65% 30.01 in 10.0 mi NNW 5.8 mph - N/A   Clear
5:53 AM 55.9 °F - 46.0 °F 69% 30.02 in 10.0 mi NNW 6.9 mph - N/A   Clear
6:53 AM 57.9 °F - 46.0 °F 65% 30.05 in 10.0 mi NNW 5.8 mph - N/A   Clear
7:53 AM 64.0 °F - 48.0 °F 56% 30.05 in 10.0 mi North 9.2 mph - N/A   Clear
8:53 AM 68.0 °F - 50.0 °F 52% 30.07 in 10.0 mi North 10.4 mph - N/A   Clear
9:53 AM 71.1 °F - 52.0 °F 51% 30.07 in 10.0 mi North 10.4 mph - N/A   Clear
10:53 AM 75.0 °F - 51.1 °F 43% 30.06 in 10.0 mi North 13.8 mph 18.4 mph N/A   Clear
11:53 AM 79.0 °F - 53.1 °F 40% 30.06 in 10.0 mi North 12.7 mph 19.6 mph N/A   Clear
12:53 PM 80.1 °F - 52.0 °F 38% 30.05 in 10.0 mi North 10.4 mph - N/A   Clear
1:53 PM 80.1 °F 79.9 °F 53.1 °F 39% 30.02 in 10.0 mi North 9.2 mph - N/A   Clear
2:53 PM 81.0 °F - 51.1 °F 35% 30.00 in 10.0 mi Variable 4.6 mph - N/A   Clear
3:53 PM 81.0 °F - 50.0 °F 34% 29.99 in 10.0 mi NNE 8.1 mph - N/A   Clear
4:53 PM 82.0 °F - 51.1 °F 34% 29.98 in 10.0 mi NNW 10.4 mph - N/A   Mostly Cloudy
5:10 PM 80.6 °F - 51.8 °F 37% 29.99 in 2.5 mi NNW 9.2 mph - N/A   Haze
5:19 PM 80.6 °F - 51.8 °F 37% 29.99 in 10.0 mi NW 8.1 mph 21.9 mph N/A   Partly Cloudy
5:24 PM 80.6 °F - 51.8 °F 37% 29.99 in 2.5 mi NNW 9.2 mph 16.1 mph N/A   Haze
6:53 PM 78.1 °F - 53.1 °F 42% 29.99 in 6.0 mi North 10.4 mph - N/A   Haze
7:10 PM 77.0 °F - 53.6 °F 44% 29.99 in 8.0 mi North 8.1 mph - N/A   Partly Cloudy
7:53 PM 73.9 °F - 55.0 °F 52% 29.99 in 10.0 mi North 5.8 mph - N/A   Clear
8:53 PM 69.1 °F - 55.9 °F 63% 30.00 in 10.0 mi North 5.8 mph - N/A   Clear
10:53 PM 66.0 °F - 57.0 °F 73% 30.02 in 10.0 mi NNW 4.6 mph - N/A   Mostly Cloudy
11:53 PM 64.9 °F - 55.9 °F 73% 30.02 in 10.0 mi Calm Calm - N/A   Partly Cloudy